Location: Hilde
(52.9479°N, 6.4449°E)
Time: 21:28:43
(UTC+00:00)

Cosmos 1758 Rocket - Pass Details

Date: 15 May 2026
Orbit: 596 x 627 km, 82.5° (Epoch: 10 June)

Event Time Altitude Azimuth Distance (km) Brightness Sun altitude
Rises 20:13:58 0° 349° (N) 2,895 8.0 -6.5°
Reaches altitude 10° 20:16:12 10° 351° (N) 1,990 7.1 -6.7°
Maximum altitude 20:20:37 80° 79° (ENE) 637 3.6 -7.2°
Drops below altitude 10° 20:25:02 10° 166° (SSE) 1,991 5.6 -7.6°
Enters shadow 20:25:53 - 167° (SSE) 2,331 6.0 -7.7°
